Terug naar catalogus

IRIDIUM 180

ActiefCommunicatiePO
NORAD 43922·PAYLOAD·🇺🇸 United States

Gelanceerd Jan 11, 2019 vanaf Vandenberg Space Force Base

Loading…

Volgende Passages (komende 24 uur)

TLE

VersSource: CelesTrak SupGP

Epoch: Sep 14, 2026, 21:12 UTC

1 43922C 19002A   26257.88368056 -.00000926  00000+0 -33123-3 0  2578
2 43922  86.3976 316.1247 0002303  97.1648  34.0713 14.34217806    13

Volg IRIDIUM 180 in realtime met AllMySat

Download on the App Store